OneWeb SL0560

operational
NORAD ID: 55145 Int'l Des: 2023-004 Owner: ONEWEBN Country: UK Constellation: oneweb
LEOCIRCULARPOLARONEWEB_TYPE

About OneWeb SL0560

Description loading...

Live Position

Loading 3D Globe...

Upcoming Passes

Altitude History

Altitude vs Time

uPlot chart will show altitude changes over time

Two-Line Element Set

1 55145U 23004F 25258.62942904 .00000038 00000-0 64143-4 0 9990
2 55145 87.9183 29.9983 0001507 103.7148 256.4152 13.18687694133527
Epoch: Sep 15, 2025 • Age: 9 hours

Current Status

Altitude 1208.3 km
Velocity 7.25 km/s
Sub-Earth Point -45.59°S, 32.89°E
Launch Date Jan 10, 2023
Age 2.6 years
Type internet

Technical Details

Classification Payload
Mass 148.00 kg
Dry Mass 140.00 kg
Total Mass 148.00 kg
Length 1.30 m
Diameter 1.00 m
Span 5.00 m
Shape Trapezoid+2 pan
Manufacturer ONEWUS
Bus Type ARROW
Phase Status In Orbit
Owner/State ONEWEBN/UK

Large Constellations

Loading constellations...